Regional Weather Roundup
Issued by NWS

Home | Current Version | Previous Version | Text Only | Print | Product List | Glossary On
Versions: 1 2 3 4 5 6 7 8 9 10 11 12 13 14 15 16 17 18 19 20 21 22 23 24 25 26 27 28 29 30 31 32 33 34 35 36 37 38 39 40 41 42 43 44 45 46 47 48 49 50
000
ASUS44 KBMX 291210
RWRAL

ALABAMA REGIONAL WEATHER ROUNDUP
NATIONAL WEATHER SERVICE BIRMINGHAM AL
700 AM CDT FRI MAY 29 2015

NOTE: "FAIR" INDICATES FEW OR NO CLOUDS BELOW 12,000 FEET
WITH NO SIGNIFICANT WEATHER AND/OR OBSTRUCTIONS TO VISIBILITY.

THE REMARK "TC" DENOTES TEMPERATURE IN DEGREES CELSIUS.

ALZ001>011-014-016>018-020-291300-
NORTH ALABAMA

CITY           SKY/WX    TMP DP  RH WIND       PRES   REMARKS
MUSCLE SHOALS  CLOUDY    70  65  84 S3        30.15R
6HR MIN TEMP:  66; 6HR MAX TEMP:  70;

HUNTSVILLE     PTSUNNY   69  65  86 SE9       30.15R
6HR MIN TEMP:  68; 6HR MAX TEMP:  70;

DECATUR        PTSUNNY   67  66  97 E6        30.15R
6HR MIN TEMP:  64; 6HR MAX TEMP:  67;

HALEYVILLE     CLOUDY    66  66 100 CALM      30.18R
6HR MIN TEMP:  66; 6HR MAX TEMP:  67;

GADSDEN        PTSUNNY  N/A N/A N/A NE5       30.16R
$$

ALZ012-013-022-023-030>036-040>044-291300-
WEST CENTRAL ALABAMA

CITY           SKY/WX    TMP DP  RH WIND       PRES   REMARKS
TUSCALOOSA     CLOUDY    68  66  93 E6        30.14R
6HR MIN TEMP:  68; 6HR MAX TEMP:  69;

$$

ALZ015-024>027-033>036-040>044-291300-
CENTRAL ALABAMA

CITY           SKY/WX    TMP DP  RH WIND       PRES   REMARKS
BIRMINGHAM     CLOUDY    68  66  93 E3        30.18R
6HR MIN TEMP:  65; 6HR MAX TEMP:  69;

MONTGOMERY     PTSUNNY   69  66  90 CALM      30.15R
6HR MIN TEMP:  68; 6HR MAX TEMP:  69;

SHELBY CO ARPT CLOUDY    67  66  97 CALM      30.16R
6HR MIN TEMP:  66; 6HR MAX TEMP:  67; 6HR PCP: TRACE;

MAXWELL AFB    PTSUNNY   69  67  94 E2        30.14R
6HR MIN TEMP:  67; 6HR MAX TEMP:  69;

GREENVILLE     CLOUDY    68  66  93 CALM      30.14R FOG
6HR MIN TEMP:  66; 6HR MAX TEMP:  68;

$$

ALZ019-021-028-029-037-038-045>048-291300-
EAST CENTRAL ALABAMA

CITY           SKY/WX    TMP DP  RH WIND       PRES   REMARKS
ANNISTON       MOSUNNY   68  65  90 NE7       30.17R
6HR MIN TEMP:  67; 6HR MAX TEMP:  68;

ALEXANDER CITY CLOUDY    67  64  90 CALM      30.17R FOG
6HR MIN TEMP:  67; 6HR MAX TEMP:  67; 6HR PCP:  0.01;

AUBURN         NOT AVBL
$$

ALZ051>064-291300-
SOUTHWEST ALABAMA

CITY           SKY/WX    TMP DP  RH WIND       PRES   REMARKS
MOBILE         FOG       71  71 100 E6        30.10R VSB 1/2
6HR MIN TEMP:  70; 6HR MAX TEMP:  73;

BROOKLEY FIELD CLOUDY    73  71  93 NE7       30.11R FOG
6HR MIN TEMP:  73; 6HR MAX TEMP:  76;

EVERGREEN      CLOUDY    68  67  96 E6        30.14R
6HR MIN TEMP:  68; 6HR MAX TEMP:  69;

$$

ALZ049-050-065>069-291300-
SOUTHEAST ALABAMA

CITY           SKY/WX    TMP DP  RH WIND       PRES   REMARKS
DOTHAN         SUNNY     70  68  93 E6        30.17R
6HR MIN TEMP:  67; 6HR MAX TEMP:  70;

OZARK          SUNNY     69  69  99 E5        30.13R
6HR MIN TEMP:  66; 6HR MAX TEMP:  69;

TROY           FOG       67  66  97 CALM      30.15R VSB 1
6HR MIN TEMP:  67; 6HR MAX TEMP:  68;

EUFAULA        FAIR      71  68  90 SE3       30.14R
6HR MIN TEMP:  65; 6HR MAX TEMP:  71;

$$



USA.gov is the U.S. government's official web portal to all federal, state and local government web resources and services.